Regional Weather Roundup
Issued by NWS

Home | Current Version | Previous Version | Graphics & Text | Print | Product List | Glossary Off
Versions: 1 2 3 4 5 6 7 8 9 10 11 12 13 14 15 16 17 18 19 20 21 22 23 24 25 26 27 28 29 30 31 32 33 34 35 36 37 38 39 40 41 42 43 44 45 46 47 48 49 50

000
ASUS43 KTOP 230608
RWRKS

WEATHER ROUNDUP FOR KANSAS
NATIONAL WEATHER SERVICE GOODLAND KS
1200 AM CST SUN NOV 23 2014

NOTE:  "FAIR" INDICATES FEW OR NO CLOUDS BELOW 12,000 FEET WITH NO
SIGNIFICANT WEATHER AND/OR OBSTRUCTIONS TO VISIBILITY.

KSZ001>006-013>018-027>032-041>047-230700-
NORTHWEST KANSAS

CITY           SKY/WX    TMP DP  RH WIND       PRES   REMARKS
GOODLAND       CLOUDY    38  23  55 SW3       29.49F
6HR MIN TEMP:  37; 6HR MAX TEMP:  54;

HAYS           CLOUDY    55  46  71 S22       29.51F
HILL CITY      CLOUDY    54  49  83 S12       29.51F
6HR MIN TEMP:  52; 6HR MAX TEMP:  56;

RUSSELL        CLOUDY    55  51  86 S25       29.52F
6HR MIN TEMP:  54; 6HR MAX TEMP:  57;

$$

KSZ061>065-074>080-084>089-230700-
SOUTHWEST KANSAS

CITY           SKY/WX    TMP DP  RH WIND       PRES   REMARKS
DODGE CITY     CLOUDY    52  47  83 S23G32    29.53F
6HR MIN TEMP:  51; 6HR MAX TEMP:  58;

ELKHART          N/A    N/A N/A N/A MISG        N/A
GARDEN CITY    MOCLDY    47  46  97 S14       29.50F
6HR MIN TEMP:  47; 6HR MAX TEMP:  52;

GREAT BEND     CLOUDY    54  46  76 S25G32    29.54F
LIBERAL        CLEAR     46  41  81 S13       29.54F
PRATT          MOCLDY    52  50  93 S16       29.59F
$$

KSZ066>073-081>083-090>101-230700-
SOUTHEAST KANSAS

CITY           SKY/WX    TMP DP  RH WIND       PRES   REMARKS
CHANUTE        PTCLDY    52  51  97 SE9       29.68S
6HR MIN TEMP:  52; 6HR MAX TEMP:  56;

COFFEYVILLE    MOCLDY    56  53  90 S12       29.68F
6HR MIN TEMP:  53; 6HR MAX TEMP:  56;

HUTCHINSON     CLOUDY    54  51  90 S14       29.61F
6HR MIN TEMP:  53; 6HR MAX TEMP:  58;

MEDICINE LODGE   N/A     52  51  97 S13       29.60F
NEWTON         CLOUDY    54  48  82 S17       29.63F
PARSONS        MOCLDY    54  53  97 S5        29.69F
6HR MIN TEMP:  53; 6HR MAX TEMP:  56;

WICHITA INTL   CLOUDY    55  52  89 S17       29.61F
6HR MIN TEMP:  54; 6HR MAX TEMP:  58;

WICHITA JABRA  CLOUDY    54  52  93 S16G28    29.61F
6HR MIN TEMP:  53; 6HR MAX TEMP:  56;

WICHITA MCCONL CLOUDY    54  54  99 S16G24    29.62F
WINFIELD       CLOUDY    56  54  93 S13       29.64F
6HR MIN TEMP:  52; 6HR MAX TEMP:  56;

$$

KSZ007>012-019>026-033>040-048>060-102>105-230700-
NORTHEAST KANSAS

CITY           SKY/WX    TMP DP  RH WIND       PRES   REMARKS
CONCORDIA      CLOUDY    56  52  86 S22G31    29.55S
6HR MIN TEMP:  56; 6HR MAX TEMP:  58;

EMPORIA        CLOUDY    55  52  89 S15G26    29.63F
6HR MIN TEMP:  53; 6HR MAX TEMP:  55;

LAWRENCE       CLOUDY    56  51  84 S12       29.67F
6HR MIN TEMP:  55; 6HR MAX TEMP:  56;

MANHATTAN      CLOUDY    56  51  84 S18       29.60F
6HR MIN TEMP:  55; 6HR MAX TEMP:  60;

MARYSVILLE     CLOUDY    55  52  88 S13G22    29.60F
OLATHE IND     CLOUDY    53  51  93 S9G18     29.69F
6HR MIN TEMP:  53; 6HR MAX TEMP:  55;

OLATHE EXE     CLOUDY    54  51  90 S13       29.69F
6HR MIN TEMP:  54; 6HR MAX TEMP:  56;

SALINA         CLOUDY    56  50  80 S20G31    29.58F
6HR MIN TEMP:  56; 6HR MAX TEMP:  60;

TOPEKA BILLARD CLOUDY    57  52  83 S7        29.65F
6HR MIN TEMP:  57; 6HR MAX TEMP:  58;

TOPEKA FORBES  CLOUDY    57  52  83 S13       29.64F
6HR MIN TEMP:  56; 6HR MAX TEMP:  57;

$$


USA.gov is the U.S. government's official web portal to all federal, state and local government web resources and services.